Regional Weather Roundup
Issued by NWS Green Bay, WI

Home | Current Version | Previous Version | Text Only | Print | Product List | Glossary On
Versions: 1 2 3 4 5 6 7 8 9 10 11 12 13 14 15 16 17 18 19 20 21 22 23 24 25 26 27 28 29 30 31 32 33 34 35 36 37 38 39 40 41 42 43 44 45 46 47 48 49 50
000
ASUS43 KGRB 290311
RWRGRB

NORTH-CENTRAL AND NORTHEAST WISCONSIN REGIONAL WEATHER ROUNDUP
NATIONAL WEATHER SERVICE GREEN BAY WI
1000 PM CDT WED SEP 28 2016

WIZ005-009-010>012-018-019-290400-
NORTH CENTRAL WISCONSIN

CITY           SKY/WX    TMP DP  RH WIND       PRES   REMARKS
IRONWOOD       CLOUDY    50  48  93 CALM      30.38R
MANITOWISH WTR CLOUDY    52  52 100 NE6       30.36R
ARBOR VITAE    CLOUDY    55  51  86 NE6       30.35R
EAGLE RIVER    CLOUDY    51  50  95 NE10      30.34R
LAND O LAKES   CLOUDY    52  50  91 NE5       30.37R
RHINELANDER    CLOUDY    52  52 100 N7        30.34R
PHILLIPS       CLOUDY    52  51  97 N8        30.34R
ANTIGO         CLEAR     49  48  97 CALM      30.31R
TOMAHAWK       CLOUDY    52  49  87 NE5       30.33R
MERRILL        CLEAR     50  50 100 NE5       30.32R
$$

WIZ013-073-290400-
NORTHEAST WISCONSIN

CITY           SKY/WX    TMP DP  RH WIND       PRES   REMARKS
IRON MOUNTAIN  CLEAR     51  47  86 N8        30.31R
MARINETTE      CLEAR     55  51  86 N12       30.27R
OCONTO         CLEAR     54  51  88 N10       30.26R
$$

WIZ017-030-035>037-045-290400-
CENTRAL WISCONSIN

CITY           SKY/WX    TMP DP  RH WIND       PRES   REMARKS
MEDFORD        CLOUDY    52  52 100 N7        30.32R
WAUSAU         CLEAR     53  49  86 N7        30.29R
MOSINEE        CLEAR     52  50  93 N10       30.30R
MARSHFIELD     CLOUDY    56  49  77 NE10      30.28R
WISC RAPIDS    PTCLDY    50  49  96 N8        30.28R
STEVENS POINT  PTCLDY    51  48  92 NE7       30.29R
WAUPACA        CLEAR     52  51  95 N5        30.26R
SHAWANO        CLEAR     56  52  85 NE13G18   30.28R
CLINTONVILLE   CLEAR     54  50  87 NE8       30.26R
WAUTOMA        CLEAR     52  49  89 N5        30.25R
$$

WIZ038-039-048-051-290400-
FOX VALLEY

CITY           SKY/WX    TMP DP  RH WIND       PRES   REMARKS
NWS GREEN BAY  CLEAR     54  54 100 N14       30.24R
APPLETON       PTCLDY    54  52  94 N12       30.22R
OSHKOSH        CLEAR     54  50  86 N8        30.22R
FOND DU LAC    CLEAR     57  52  83 N13       30.21R
$$

WIZ022-050-052-290400-
EAST CENTRAL WISCONSIN

CITY           SKY/WX    TMP DP  RH WIND       PRES   REMARKS
EPHRAIM        FAIR      57  56  96 N12G17    30.25R
WASHINGTON ISL MOCLDY    57  55  91 N13G21    30.26R
STURGEON BAY   PTCLDY    58  55  90 N12       30.25R
MANITOWOC      CLEAR     57  52  83 MISG      30.21R
SHEBOYGAN      CLEAR     57  52  83 N12       30.18R
$$

LMZ563-521-522-541>543-290400-
LAKESHORE

STATION/POSITION TIME  TEMP    WIND        PRES    VSBY  WAVE
                       AIR SEA DIR/SP/G                  HT/PER
                 (UTC) (F)     (DEG/KT/KT) (MB)    (MI)  (FT/S)
SHEBOYGAN LKSHOR 0300   58      10/ 21/ 24 1021.7R
KEWAUNEE LKSHORE 0200   57     350/  8/ 12 1022.2R
NORTHPORT PIER   0200   60      10/ 15/ 18 1024.0R
N MID LAKE BUOY  0250   62 66  360/ 21/ 25 1023.3R         3/ 4
SISTER BAY LKSHO 0223   59      20/ 14/ 18   N/A
CHAMBERS ISLAND  0200   60     350/ 18/ 24 1024.0R
MENOMINEE LKSHOR 0200   58     350/ 16/ 19 1023.5R
$$




USA.gov is the U.S. government's official web portal to all federal, state and local government web resources and services.